Location: Piolenc
(44.1794°N, 4.7641°E)
Time: 01:57:21
(UTC+00:00)

FALCON 9 DEB - Pass Details

Date: 27 January 2021
Orbit: 376 x 391 km, 53.0° (Epoch: 27 February)

Event Time Altitude Azimuth Distance (km) Brightness Sun altitude
Exits shadow 05:29:04 35° 221° (SW) 643 3.7 -17.0°
Maximum altitude 05:30:14 74° 145° (SE) 404 3.0 -16.8°
Drops below altitude 10° 05:33:22 10° 59° (ENE) 1,406 6.4 -16.3°
Sets 05:35:25 0° 57° (ENE) 2,259 7.5 -15.9°
